Location: *
(37.9500°N, 27.3666°E)
Time: 05:13:52
(UTC+00:00)

Cosmos 1844 Rocket - Pass Details

Date: 24 October 2021
Orbit: 826 x 843 km, 71.0° (Epoch: 03 December)

Event Time Altitude Azimuth Distance (km) Brightness Sun altitude
Rises 17:24:33 0° 337° (NNW) 3,370 6.2 -25.0°
Reaches altitude 10° 17:26:59 10° 337° (NNW) 2,433 5.4 -25.5°
Maximum altitude 17:32:34 85° 249° (WSW) 834 2.6 -26.6°
Enters shadow 17:33:30 63° 169° (S) 918 2.7 -26.8°
